Back to catalog

STARLINK-4292

AliveCommunicationsVLEO
NORAD 53175·PAYLOAD·🇺🇸 United States

Launched Jul 17, 2022 from Cape Canaveral Space Force Station

Loading…

Next Passes (next 24 hours)

TLE

FreshSource: CelesTrak SupGP

Epoch: Sep 14, 2026, 21:51 UTC

1 53175C 22083AV  26257.91090278  .00018052  00000+0  51666-3 0  2573
2 53175  53.1601  35.5201 0001139  78.4091 197.4289 15.35379190    12

Track STARLINK-4292 in real time with AllMySat

Download on the App Store